Location: Austin
(30.3000°N, 97.7500°W)
Time: 06:17:33
(UTC-06:00)

SPOT 1/Viking Rocket - Pass Details

Date: 03 March 2026
Orbit: 773 x 789 km, 98.2° (Epoch: 6 March)

Event Time Altitude Azimuth Distance (km) Brightness Sun altitude
Rises 18:51:51 0° 172° (S) 3,233 6.7 -5.2°
Reaches altitude 10° 18:54:09 10° 175° (S) 2,310 6.0 -5.7°
Maximum altitude 18:59:13 69° 259° (WSW) 827 4.0 -6.8°
Drops below altitude 10° 19:04:21 10° 342° (NNW) 2,330 6.2 -7.9°
Sets 19:06:41 0° 345° (NNW) 3,264 6.9 -8.4°
